[[{"header":{"parameterUnit":"m.s-1","parameterCategory":1,"la1":30.2991,"la2":30.254,"lo1":-89.0895,"lo2":-89.0444,"dy":0.0017,"dx":0.0017,"nx":28,"ny":28,"refTime":"2025-02-07T03:00:00:Z","depth":0,"parameterNumber":2,"parameterNumberName":"U-component_of_WINDS"},"data":[0,0,0,0,0,0,0,0,0,0,0,0,0,0,0,0,0,0,0,0,0,0,0,0,0,0,0,0,0,0,0,0,0,0,0,0,0,0,0,0,0,0,0,0,0,0,0,0,0,0,0,0,0,0,0,0,0,0,-1.7205,-1.7204,0,-1.7195,-1.7195,-1.7195,-1.7158,-1.7157,-1.7157,-1.7156,-1.7147,-1.7147,-1.7148,0,0,0,0,0,0,0,0,0,0,0,0,0,-1.7192,-1.7192,-1.7205,-1.7204,-1.7204,-1.7195,-1.7195,-1.7195,-1.7158,-1.7157,-1.7156,-1.7155,-1.7147,-1.7147,-1.7148,0,0,0,0,0,0,0,0,0,0,0,0,0,-1.7191,-1.7192,-1.7205,-1.7185,-1.7183,-1.7195,-1.7195,-1.7195,-1.7159,-1.7157,-1.7156,-1.7155,-1.7146,-1.7147,-1.7148,-1.7178,0,0,-1.7151,-1.7151,0,0,0,0,0,0,0,0,-1.7191,-1.7192,-1.7188,-1.7186,-1.7184,-1.7177,-1.7187,-1.7189,-1.7159,-1.7168,-1.7156,-1.7154,-1.7158,-1.7158,-1.7159,-1.7178,-1.7178,-1.7151,-1.7151,-1.7151,-1.7152,0,0,0,0,0,0,0,-1.7191,-1.7192,-1.7201,-1.7188,-1.7186,-1.7177,-1.7175,-1.7187,-1.717,-1.7167,-1.7164,-1.7164,-1.7157,-1.7158,-1.7158,-1.7177,-1.7151,-1.7151,-1.7152,-1.7152,-1.722,-1.7221,0,0,0,0,0,0,-1.7194,-1.7192,-1.7201,-1.7201,-1.7185,-1.7178,-1.7177,-1.718,-1.717,-1.7167,-1.7165,-1.7162,-1.7157,-1.7157,-1.7158,-1.7191,-1.7151,-1.7152,-1.7153,-1.7219,-1.722,-1.7222,0,0,0,0,0,0,-1.7194,-1.7195,-1.7202,-1.7196,-1.7196,-1.718,-1.7184,-1.7181,-1.7182,-1.7168,-1.7165,-1.7169,-1.7156,-1.7157,-1.7173,-1.7191,-1.7153,-1.7153,-1.7217,-1.7219,-1.7221,-1.726,0,0,0,0,0,0,-1.7194,-1.7195,-1.7207,-1.7196,-1.7196,-1.7217,-1.7185,-1.7182,-1.7184,-1.718,-1.7172,-1.7169,-1.7155,-1.7172,-1.7174,-1.7191,-1.7154,-1.7216,-1.7218,-1.7221,-1.7257,-1.7263,-1.7268,0,0,0,0,0,-1.7193,-1.7218,-1.7207,-1.7209,-1.721,-1.7218,-1.7218,-1.7202,-1.7185,-1.7196,-1.7187,-1.7169,-1.7189,-1.7174,-1.7176,-1.7193,-1.7214,-1.7218,-1.722,-1.7254,-1.7261,-1.7268,0,0,0,0,0,0,-1.7231,-1.7216,-1.7204,-1.7226,-1.7224,-1.7212,-1.7225,-1.721,-1.7212,-1.7209,-1.7188,-1.7187,-1.7206,-1.7202,-1.7186,-1.7222,-1.7199,-1.7202,-1.7224,-1.723,-1.7236,-1.7236,-1.7155,0,0,0,0,0,-1.7242,-1.725,-1.7237,-1.7258,-1.7257,-1.7242,-1.7245,-1.7232,-1.7229,-1.7227,-1.722,-1.7217,-1.7223,-1.7227,-1.7231,-1.7257,-1.7254,-1.7269,-1.7275,-1.728,-1.7282,-1.7294,-1.7301,-1.7232,-1.7232,-1.7232,0,0,-1.7265,-1.7258,-1.7264,-1.7265,-1.7262,-1.727,-1.7241,-1.7251,-1.7257,-1.7229,-1.7244,-1.7238,-1.7234,-1.7255,-1.7264,-1.7252,-1.7301,-1.7283,-1.7287,-1.7287,-1.7298,-1.7305,-1.731,-1.7234,-1.7233,-1.7233,0,0,-1.731,-1.7306,-1.7322,-1.7319,-1.7314,-1.7304,-1.7308,-1.7298,-1.7293,-1.7308,-1.7287,-1.7294,-1.7304,-1.7302,-1.7302,-1.7346,-1.7329,-1.7348,-1.7377,-1.7389,-1.7394,-1.7399,-1.7413,-1.7419,-1.7352,-1.7352,-1.7352,0,-1.7339,-1.735,-1.7333,-1.7344,-1.7345,-1.732,-1.7336,-1.7334,-1.7331,-1.7332,-1.7319,-1.733,-1.7326,-1.7345,-1.7356,-1.7358,-1.7361,-1.7348,-1.7395,-1.7399,-1.7403,-1.7417,-1.7423,-1.7354,-1.7354,-1.7353,-1.7353,0,-1.7385,-1.7394,-1.7407,-1.7404,-1.7407,-1.7421,-1.7405,-1.741,-1.7398,-1.7389,-1.7404,-1.7398,-1.74,-1.7404,-1.7392,-1.7422,-1.7414,-1.7398,-1.7374,-1.7412,-1.7425,-1.743,-1.7357,-1.7356,-1.7356,-1.7355,0,0,-1.7453,-1.744,-1.7445,-1.7443,-1.7436,-1.7442,-1.7455,-1.7456,-1.746,-1.746,-1.7469,-1.7478,-1.7463,-1.7464,-1.7452,-1.7462,-1.7496,-1.7445,-1.7444,-1.7453,-1.7527,-1.7538,-1.7544,-1.7486,-1.7487,-1.7488,-1.7527,0,-1.7495,-1.7515,-1.7499,-1.7522,-1.7529,-1.7506,-1.7517,-1.7514,-1.7506,-1.7511,-1.7503,-1.7509,-1.7489,-1.7489,-1.7499,-1.749,-1.751,-1.7487,-1.7494,-1.7494,-1.7494,-1.7551,-1.7562,-1.7599,-1.7532,-1.7532,-1.7533,0,-1.7546,-1.7546,-1.757,-1.756,-1.7562,-1.7573,-1.7572,-1.7578,-1.7574,-1.7567,-1.7568,-1.7553,-1.7564,-1.7542,-1.7557,-1.7542,-1.7544,-1.754,-1.7541,-1.754,-1.7515,-1.7549,-1.7611,-1.7616,-1.7541,-1.754,-1.754,0,-1.7591,-1.7598,-1.7612,-1.7611,-1.7601,-1.7608,-1.7605,-1.7599,-1.7601,-1.7602,-1.7602,-1.7605,-1.7605,-1.7607,-1.7593,-1.7579,-1.761,-1.7587,-1.7604,-1.7605,-1.7611,-1.761,-1.7672,-1.7615,-1.7615,-1.7615,-1.7615,0,-1.7638,-1.7653,-1.7632,-1.7641,-1.7657,-1.7639,-1.7656,-1.7649,-1.7645,-1.7652,-1.7633,-1.764,-1.7622,-1.7627,-1.7616,-1.763,-1.7631,-1.7626,-1.7622,-1.7626,-1.7627,-1.7626,-1.7622,-1.7616,-1.7616,-1.7616,-1.7615,0,-1.769,-1.7677,-1.7691,-1.768,-1.7678,-1.769,-1.7681,-1.7688,-1.7679,-1.7689,-1.769,-1.7676,-1.7681,-1.7668,-1.7671,-1.7664,-1.7683,-1.7677,-1.7684,-1.7682,-1.7699,-1.7697,-1.7761,-1.7768,-1.7709,-1.7709,-1.771,0,-1.772,-1.7731,-1.7721,-1.7724,-1.7721,-1.7727,-1.7729,-1.7712,-1.7715,-1.7711,-1.7719,-1.7722,-1.7724,-1.7733,-1.7724,-1.7726,-1.7718,-1.7741,-1.7718,-1.7722,-1.7717,-1.7715,-1.7716,-1.7745,-1.7745,-1.7746,-1.7746,0,-1.7775,-1.7768,-1.7771,-1.7771,-1.7774,-1.7773,-1.7772,-1.7776,-1.7758,-1.7762,-1.7766,-1.7768,-1.7771,-1.7774,-1.7775,-1.7771,-1.7755,-1.7754,-1.7758,-1.7761,-1.7764,-1.7761,-1.7695,-1.7752,-1.7751,-1.7751,-1.7751,-1.775,-1.7816,-1.7824,-1.7818,-1.7822,-1.7819,-1.7818,-1.7824,-1.7816,-1.7819,-1.782,-1.7811,-1.7817,-1.7812,-1.7811,-1.7809,-1.7814,-1.7803,-1.7809,-1.781,-1.7812,-1.7814,-1.7765,-1.7814,-1.7814,-1.7813,-1.7813,-1.7813,0,-1.7868,-1.7863,-1.7867,-1.7865,-1.7868,-1.7853,-1.7851,-1.7854,-1.786,-1.7857,-1.7859,-1.7864,-1.7867,-1.7858,-1.786,-1.7865,-1.7858,-1.7866,-1.7865,-1.7864,-1.7824,-1.7819,-1.7872,-1.7872,-1.7872,-1.7872,-1.7872,-1.7872,-1.7896,-1.7908,-1.79,-1.7911,-1.7906,-1.7912,-1.7911,-1.791,-1.7907,-1.7914,-1.7916,-1.791,-1.7904,-1.7905,-1.7907,-1.7904,-1.7905,-1.7915,-1.791,-1.7873,-1.7867,-1.7861,-1.7857,-1.7916,-1.7916,-1.7949,-1.795,-1.795]},{"header":{"parameterUnit":"m.s-1","parameterCategory":1,"la1":30.2991,"la2":30.254,"lo1":-89.0895,"lo2":-89.0444,"dy":0.0017,"dx":0.0017,"nx":28,"ny":28,"refTime":"2025-02-07T03:00:00:Z","depth":0,"parameterNumber":3,"parameterNumberName":"V-component_of_WINDS"},"data":[0,0,0,0,0,0,0,0,0,0,0,0,0,0,0,0,0,0,0,0,0,0,0,0,0,0,0,0,0,0,0,0,0,0,0,0,0,0,0,0,0,0,0,0,0,0,0,0,0,0,0,0,0,0,0,0,0,0,2.2615,2.2616,0,2.274,2.2742,2.2743,2.2791,2.2791,2.279,2.279,2.2918,2.2921,2.2925,0,0,0,0,0,0,0,0,0,0,0,0,0,2.2416,2.2419,2.2614,2.2616,2.2618,2.274,2.2742,2.2744,2.2791,2.2791,2.279,2.279,2.2916,2.2921,2.2925,0,0,0,0,0,0,0,0,0,0,0,0,0,2.2518,2.242,2.2614,2.2656,2.2661,2.274,2.2742,2.2744,2.2791,2.2791,2.279,2.279,2.2915,2.292,2.2926,2.2972,0,0,2.2943,2.2946,0,0,0,0,0,0,0,0,2.2512,2.2525,2.2648,2.2653,2.2659,2.275,2.2719,2.282,2.2791,2.2742,2.279,2.2789,2.2862,2.2872,2.2897,2.2978,2.2983,2.2944,2.2947,2.2949,2.2951,0,0,0,0,0,0,0,2.2505,2.252,2.2664,2.265,2.2657,2.2669,2.2683,2.2738,2.2803,2.2746,2.275,2.2764,2.2865,2.2891,2.29,2.2985,2.2943,2.2948,2.2952,2.2954,2.3113,2.3114,0,0,0,0,0,0,2.2491,2.2513,2.266,2.2668,2.2583,2.2673,2.2688,2.2721,2.2803,2.2815,2.2765,2.2766,2.2882,2.2894,2.2905,2.2966,2.2949,2.2955,2.2958,2.3112,2.3113,2.3114,0,0,0,0,0,0,2.2486,2.2503,2.2655,2.2592,2.2612,2.2677,2.2713,2.2724,2.275,2.2817,2.2829,2.278,2.2882,2.2897,2.2956,2.2971,2.2957,2.2962,2.3111,2.3112,2.3113,2.3087,0,0,0,0,0,0,2.248,2.2501,2.2519,2.2592,2.2615,2.2704,2.2714,2.2727,2.276,2.2763,2.2834,2.2845,2.2883,2.2947,2.2961,2.2979,2.2967,2.311,2.3111,2.3113,2.3087,2.3087,2.3088,0,0,0,0,0,2.2473,2.2506,2.252,2.2537,2.2639,2.2704,2.2718,2.276,2.2761,2.278,2.2823,2.2843,2.2967,2.2952,2.2969,2.2988,2.3109,2.3111,2.3113,2.3087,2.3087,2.3088,0,0,0,0,0,0,2.2433,2.2516,2.2533,2.259,2.264,2.2712,2.2737,2.2759,2.2809,2.281,2.286,2.2876,2.2931,2.2965,2.2948,2.3038,2.3039,2.3045,2.3014,2.3015,2.3015,2.3007,2.2971,0,0,0,0,0,2.243,2.2477,2.2547,2.2591,2.2615,2.2672,2.2702,2.2731,2.2784,2.2805,2.2852,2.2903,2.2954,2.2986,2.3036,2.3092,2.3109,2.3113,2.3114,2.3114,2.3118,2.3152,2.3156,2.312,2.312,2.312,0,0,2.2426,2.2478,2.2504,2.2584,2.2626,2.2674,2.2689,2.2738,2.2774,2.2812,2.2872,2.2908,2.2968,2.3026,2.3054,2.3056,2.3132,2.3116,2.3116,2.312,2.3155,2.3158,2.3161,2.3121,2.3121,2.3121,0,0,2.2443,2.2486,2.2529,2.2571,2.2635,2.2673,2.2683,2.2752,2.2779,2.2839,2.2869,2.2912,2.2998,2.304,2.3073,2.3108,2.3129,2.3123,2.3125,2.3158,2.3161,2.3164,2.3178,2.3182,2.3126,2.3126,2.3126,0,2.243,2.2503,2.2548,2.2596,2.2631,2.2669,2.2713,2.2752,2.2828,2.2852,2.2853,2.2963,2.3006,2.3076,2.3085,2.3109,2.3123,2.3115,2.3157,2.316,2.3163,2.3178,2.3183,2.3125,2.3126,2.3126,2.3126,0,2.2484,2.2534,2.2561,2.2635,2.2673,2.2719,2.2771,2.2805,2.283,2.2868,2.293,2.2983,2.3045,2.3064,2.3088,2.3137,2.3137,2.3147,2.315,2.3165,2.318,2.3185,2.3124,2.3124,2.3125,2.3125,0,0,2.2478,2.2579,2.2588,2.2623,2.2697,2.2737,2.2785,2.2847,2.2875,2.2927,2.2969,2.3041,2.3052,2.3089,2.3119,2.3148,2.3175,2.3155,2.3157,2.3158,2.3234,2.3228,2.3233,2.3189,2.319,2.3191,2.323,0,2.2507,2.2595,2.2638,2.2707,2.2755,2.2793,2.2835,2.2885,2.2921,2.2967,2.3008,2.3059,2.3068,2.3091,2.3121,2.3165,2.3191,2.3162,2.323,2.3231,2.3215,2.3241,2.3233,2.3268,2.3236,2.3237,2.3237,0,2.2551,2.2604,2.2679,2.275,2.2771,2.2808,2.287,2.2913,2.2971,2.2996,2.3038,2.3068,2.3121,2.3119,2.3193,2.3172,2.3202,2.3228,2.3231,2.324,2.3236,2.3252,2.3279,2.3285,2.3246,2.3246,2.3245,0,2.2542,2.2632,2.2689,2.2718,2.2801,2.2826,2.2862,2.292,2.2955,2.3009,2.3033,2.3091,2.3124,2.3168,2.3213,2.3207,2.3284,2.3285,2.3307,2.3306,2.3322,2.3321,2.3357,2.3338,2.3338,2.3338,2.3338,0,2.2569,2.2614,2.2686,2.2721,2.2773,2.2822,2.2872,2.291,2.2962,2.3006,2.3041,2.3081,2.3138,2.3185,2.3221,2.3278,2.3291,2.3314,2.3323,2.3312,2.3309,2.3333,2.3332,2.334,2.3339,2.3339,2.3339,0,2.2568,2.2618,2.2683,2.2757,2.2777,2.2812,2.2876,2.2912,2.2951,2.3006,2.3022,2.3083,2.3141,2.3191,2.3266,2.329,2.335,2.336,2.3331,2.3336,2.3356,2.3354,2.341,2.3421,2.3393,2.3393,2.3393,0,2.2583,2.2618,2.2697,2.273,2.2766,2.2817,2.2854,2.2904,2.2941,2.3011,2.3039,2.31,2.3152,2.3243,2.3294,2.3353,2.3366,2.3381,2.3375,2.3363,2.3368,2.3366,2.3371,2.3382,2.3382,2.3382,2.3382,0,2.2605,2.2629,2.2681,2.2742,2.2786,2.2836,2.2888,2.2912,2.2972,2.3012,2.3072,2.3112,2.3191,2.3252,2.3317,2.3354,2.3378,2.3383,2.3392,2.3382,2.3364,2.3376,2.3334,2.3382,2.3382,2.3382,2.3382,2.3382,2.2613,2.2648,2.271,2.2767,2.2812,2.2859,2.2898,2.2943,2.2994,2.3063,2.3089,2.3152,2.3211,2.3301,2.3338,2.3388,2.3392,2.3403,2.3407,2.3409,2.3409,2.3355,2.34,2.34,2.34,2.34,2.34,0,2.2639,2.2681,2.2733,2.2806,2.2851,2.2871,2.293,2.2967,2.3022,2.3075,2.3126,2.3197,2.3256,2.3313,2.3375,2.3405,2.3418,2.3419,2.3419,2.3427,2.3401,2.3389,2.3408,2.3408,2.3408,2.3408,2.3408,2.3408,2.2657,2.2718,2.2749,2.2832,2.2874,2.2936,2.2968,2.3013,2.3057,2.3134,2.3185,2.3222,2.3277,2.3344,2.34,2.3416,2.3438,2.3437,2.3455,2.343,2.3429,2.3427,2.3416,2.3441,2.3441,2.3478,2.3478,2.3478]}]]